Flag for Cuba

Past Weather in Provincia de Ciego de Ávila, Cuba — Yesterday and Last 2 Weeks

Now
73 °F

Scattered clouds.


Feels Like: 72 °F
Forecast: 91 / 76 °F
Wind: 1 mph from North

Location: Santa Bárbara

Current Time: Jul 17, 2019 at 7:14:52 am

Latest Report: Jul 17, 2019 at 6:53 am


Visibility: 6 mi

Pressure: 30.07 "Hg

Humidity: 89%

Dew Point: 70 °F

Location of Provincia de Ciego de ÁvilaLocation

Past Weather in Provincia de Ciego de Ávila — Graph

°F

Provincia de Ciego de Ávila Temperature Yesterday

Maximum temperature yesterday: 93 °F (at 3:51 pm)
Minimum temperature yesterday: 73 °F (at 6:50 am)
Average temperature yesterday: 83 °F

High & Low Weather Summary for the Past Weeks

 TemperatureHumidityPressure
High95 °F (Jul 7, 3:50 pm)94% (Jul 2, 6:50 am)30.09 "Hg (Jul 2, 6:50 am)
Low68 °F (Jul 10, 4:50 am)34% (Jul 7, 3:50 pm)29.95 "Hg (Jul 3, 5:50 am)
Average81 °F74%30.03 "Hg
* Reported Jul 2 5:50 am — Jul 17 5:50 am, Provincia de Ciego de Ávila. Weather by CustomWeather, © 2019

Note: Actual official high and low records may vary slightly from our data, if they occured in-between our weather recording intervals... More about our weather records

Advertising

Provincia de Ciego de Ávila Weather History for the Previous 24 Hours

Scroll right to see more
 ConditionsComfort  
Time TempWeatherWind HumidityBarometerVisibility
5:50 am
Wed, Jul 17
75 °FPassing clouds.5 mph89%30.07 "Hg6 mi
4:51 am75 °FPassing clouds.3 mph89%30.07 "Hg6 mi
3:51 am75 °FPassing clouds.5 mph89%30.07 "Hg6 mi
2:50 am77 °FPassing clouds.3 mph83%30.07 "Hg6 mi
1:52 am77 °FPassing clouds.6 mph89%30.07 "Hg6 mi
12:50 am77 °FPassing clouds.3 mph83%30.09 "Hg6 mi
11:51 pm
Tue, Jul 16
79 °FPassing clouds.5 mph79%30.09 "Hg6 mi
10:50 pm79 °FPassing clouds.5 mph79%30.09 "Hg6 mi
9:52 pm81 °FPassing clouds.8 mph74%30.07 "Hg6 mi
8:53 pm82 °FPassing clouds.10 mph70%30.07 "Hg6 mi
7:55 pm84 °FScattered clouds.15 mph66%30.07 "Hg6 mi
6:51 pm88 °FScattered clouds.16 mph52%30.04 "Hg6 mi
5:52 pm90 °FScattered clouds.16 mph52%30.04 "Hg6 mi
4:51 pm90 °FScattered clouds.17 mph52%30.04 "Hg6 mi
3:51 pm93 °FPartly sunny.14 mph47%30.04 "Hg6 mi
2:52 pm91 °FPartly sunny.12 mph44%30.07 "Hg6 mi
1:52 pm91 °FPartly sunny.12 mph46%30.07 "Hg6 mi
12:51 pm91 °FPartly sunny.10 mph44%30.09 "Hg6 mi
11:50 am88 °FPartly sunny.9 mph49%30.09 "Hg6 mi
10:51 am86 °FPartly sunny.8 mph59%30.09 "Hg6 mi
9:51 am84 °FBroken clouds.8 mph70%30.09 "Hg6 mi
8:52 am82 °FScattered clouds.8 mph74%30.09 "Hg6 mi
7:51 am77 °FScattered clouds.5 mph89%30.09 "Hg6 mi
Weather by CustomWeather, © 2019

See weather overview